Location: Unspecified
(33.6682°S, 0.0000°E)
Time: 13:16:55
(UTC+00:00)

Vanguard 2 Rocket - Pass Details

Date: 23 June 2019
Orbit: 554 x 3326 km, 32.9° (Epoch: 18 July)

Event Time Altitude Azimuth Distance (km) Brightness Sun altitude
Rises 07:56:20 0° 304° (NW) 7,171 11.3 8.3°
Reaches altitude 10° 08:01:37 10° 307° (NW) 5,942 10.9 9.2°
Maximum altitude 08:18:25 60° 21° (NNE) 2,442 9.7 12.0°
Drops below altitude 10° 08:28:18 10° 97° (E) 3,668 10.7 13.5°
Sets 08:30:45 0° 101° (E) 4,359 11.0 13.9°
